THORAD DELTA 1 DEB, 42605

Orbit data source: Space-Track

THORAD DELTA 1 DEB, 42605 is space debris in SSO originally from a launch on Fri, 15 Nov 1974 UTC launched from the Air Force Western Test Range (AFWTR). Debris objects in space refer to the collection of defunct objects orbiting the Earth. Examples of debris include non-operational satellites, rocket bodies, and fragments generated from explosions, collisions, or faulty payload assembly.

Loading next visibility...
Identifier
42605, 1974-089FW
Orbit
SSO
Country
Flag of USUS
Related business
Manufacturer
Unknown
Mission
Spacecraft
Bus & Motor
Unknown
Mass
Unknown
Launch date (UTC)
1974-11-15 (52 years ago)
Launch vehicle
Unknown
Launch site
Air Force Western Test Range (AFWTR)
Object type
Payload
Rocket body
Debris
Shape & HBR
Unknown shape, 0.1 m
Radar Cross Section
Small (<0.1 m²)

Expand to show TLE details & history
Last TLE update: 1 month ago

TLE from 1 month ago
0 THORAD DELTA 1 DEB
1 42605U 74089FW  26137.09664099 -.00000004  00000-0  30907-3 0  9994
2 42605 101.5033  84.3757 0124812 269.9778  88.6979 12.29195007452826
Epoch: 2026-05-17T02:19Z
TLE epoch observation values (Epoch: 2026-05-17T02:19:09.781Z)
Latitude
-0.00005°
Longitude
174.7808°
Altitude
1,554.281 km
Speed
7.09 km/s
True Right ascension
05h 37m 30s
True Declination
0° 00' 00"
Sunlit
Object was in daylight at epoch
Visualization orbit readout
Latitude
Unknown
Longitude
Unknown
Altitude
Unknown
Speed
Unknown
Apparent Right ascension
Unknown
Apparent Declination
Unknown
Sunlit
N/A
Visualization observer readout
Local Sidereal Time
21:54:16
Azimuth
Unknown
Elevation
Unknown
Doppler factor
Unknown
Orbital elements
Apogee altitude
1,649.258 km
Perigee altitude
1,451.345 km
Semi-major axis
7,928.438 km
Eccentricity
0.01248
Inclination
101.5033°
RAAN
84.3757°
Arg. of periapsis
269.9778°
True anomaly
90.12813°
Mean anomaly
88.6979°
Eccentric anomaly
89.41298°
Mean motion
3.07441 °/min
Orbital period
117.1 mins
BSTAR
0.00030907
Loading maneuver chart data...
Computing Atmospheric mass density...

Documentation

Showing up to 5 results
|